Location: Unspecified
(0.0000°N, 0.0000°E)
Time: 04:59:15
(UTC+00:00)

N. Korean satellite - Pass Details

Date: 24 May 2019
Orbit: 457 x 508 km, 97.2° (Epoch: 22 May)

Event Time Altitude Azimuth Distance (km) Brightness Sun altitude
Rises 05:09:29 0° 32° (NNE) 2,466 11.1 -11.1°
Reaches altitude 10° 05:11:49 10° 48° (NE) 1,592 10.4 -10.5°
Maximum altitude 05:14:32 23° 101° (E) 1,028 9.0 -9.9°
Drops below altitude 10° 05:17:17 10° 154° (SSE) 1,595 9.2 -9.2°
Sets 05:19:36 0° 170° (S) 2,473 10.0 -8.7°
